Overview Statistics Trail Chart Weather Telemetry Raw packets
 

This is the latest recevied weather packets stored in our database for station/object KD7CIH. If no packets are shown the sender has not sent any weather packets the latest 10 day(s).

<< 108 109 110 111 112 113 114 >>
Time Temp. Humidity Pressure Rain* Wind** Luminosity Snow
1787885129 23.33° C 30% 1018.7 hPa 0 mm - - -
1787884823 23.33° C 31% 1018.4 hPa 0 mm - - -
1787884517 23.33° C 30% 1018.6 hPa 0 mm - - -
1787884215 23.89° C 29% 1018.6 hPa 0 mm - - -
1787883913 24.44° C 28% 1018.2 hPa 0 mm - - -
1787883613 24.44° C 27% 1018 hPa 0 mm - - -
1787883311 24.44° C 26% 1018 hPa 0 mm - - -
1787883014 25° C 25% 1017.8 hPa 0 mm - - -
1787882837 25° C 25% 1017.5 hPa 0 mm - - -
1787882411 25° C 25% 1017.6 hPa 0 mm - - -
1787882112 25° C 25% 1017.6 hPa 0 mm - - -
1787881813 25° C 25% 1017.8 hPa 0 mm - - -
1787881511 25° C 26% 1017.7 hPa 0 mm - - -
1787881211 25° C 26% 1017.8 hPa 0 mm - - -
1787880913 25° C 26% 1017.7 hPa 0 mm - - -
1787880607 24.44° C 26% 1017.7 hPa 0 mm - - -
1787880435 24.44° C 27% 1017.7 hPa 0 mm - - -
1787880009 24.44° C 28% 1017.8 hPa 0 mm - - -
1787879707 23.89° C 29% 1017.8 hPa 0 mm - - -
1787879407 23.89° C 29% 1017.8 hPa 0 mm - - -
1787879107 23.89° C 29% 1017.8 hPa 0 mm - - -
1787878808 24.44° C 29% 1018 hPa 0 mm - - -
1787878507 24.44° C 29% 1017.8 hPa 0 mm - - -
1787878335 24.44° C 29% 1017.8 hPa 0 mm - - -
1787878034 24.44° C 29% 1018 hPa 0 mm - - -

* Rain latest hour (hover to see other rain measurements)
** Current wind speed in m/s (hover to see current wind gust speed)